Buffalo, MN

9:54 AM CST on December 08, 2019 (GMT -0600)
Buffalo

Weather History for KCFE - October, 2019

Change the Weather History Date:

Thursday, October 17, 2019

  Actual Average (KMIC) Record (KMIC)
Temperature  
Mean Temperature 43 °F -  
Max Temperature 56 °F 55 °F 72 °F (1991)
Min Temperature 31 °F 35 °F 26 °F (2001)
Degree Days  
Heating Degree Days 22    
Moisture  
Dew Point 35 °F    
Average Humidity 74    
Maximum Humidity 96    
Minimum Humidity 46    
Precipitation  
Precipitation 0.00 in - - ()
Sea Level Pressure  
Sea Level Pressure 29.97 in    
Wind  
Wind Speed - (North)    
Max Wind Speed -    
Max Gust Speed -    
Visibility 10 miles    
Events      
Averages and records for this station are not official NWS values.
T = Trace of Precipitation, MM = Missing Value Source: NWS Daily Summary

Daily Weather History Graph

Daily Weather History Graph

Search for Another Location

Airport or City:

Astronomy

Oct. 17, 2019 Rise Set
Actual Time 7:33 AM CDT 6:27 PM CDT
Civil Twilight 7:03 AM CDT 6:56 PM CDT
Nautical Twilight 6:29 AM CDT 7:30 PM CDT
Astronomical Twilight 5:55 AM CDT 8:04 PM CDT
Moon 8:50 PM CDT (10/17) 11:14 AM CDT (10/17)
Length of Visible Light 11h 52m
Length of Day
10h 53m
Waning Gibbous, 86% of the Moon is Illuminated
Oct 17
Waning Gibbous
Oct 21
Last Quarter
Oct 27
New
Nov 4
First Quarter
Nov 12
Full

Hourly Weather History & Observations

Time (CDT) Temp. Dew Point Humidity Pressure Visibility Wind Dir Wind Speed Gust Speed Precip Events Conditions
12:15 AM 38.7 °F 35.6 °F 89% 30.06 in 10.0 mi North - - N/A   Scattered Clouds
12:35 AM 37.4 °F 34.9 °F 91% 30.05 in 10.0 mi North - - N/A   Scattered Clouds
12:36 AM 37.4 °F 34.9 °F 91% 30.05 in 10.0 mi North - - N/A   Scattered Clouds
12:55 AM 37.6 °F 34.9 °F 90% 30.05 in 10.0 mi North - - N/A   Mostly Cloudy
1:15 AM 37.4 °F 34.7 °F 90% 30.05 in 10.0 mi North - - N/A   Mostly Cloudy
1:16 AM 37.4 °F 34.9 °F 91% 30.05 in 10.0 mi North - - N/A   Mostly Cloudy
1:35 AM 36.5 °F 34.0 °F 91% 30.05 in 10.0 mi North - - N/A   Scattered Clouds
1:55 AM 36.1 °F 33.8 °F 91% 30.04 in 10.0 mi North - - N/A   Scattered Clouds
2:15 AM 34.2 °F 32.2 °F 92% 30.04 in 10.0 mi North - - N/A   Clear
2:16 AM 34.2 °F 32.0 °F 92% 30.04 in 10.0 mi North - - N/A   Clear
2:35 AM 33.8 °F 32.0 °F 93% 30.04 in 10.0 mi North - - N/A   Scattered Clouds
2:36 AM 33.8 °F 32.0 °F 93% 30.04 in 10.0 mi North - - N/A   Scattered Clouds
2:55 AM 33.8 °F 32.0 °F 93% 30.03 in 10.0 mi North - - N/A   Mostly Cloudy
3:15 AM 34.2 °F 32.7 °F 94% 30.02 in 10.0 mi North - - N/A   Scattered Clouds
3:35 AM 33.8 °F 32.2 °F 94% 30.02 in 10.0 mi North - - N/A   Scattered Clouds
3:55 AM 33.4 °F 32.0 °F 94% 30.02 in 10.0 mi North - - N/A   Clear
4:15 AM 32.4 °F 31.3 °F 96% 30.01 in 10.0 mi North - - N/A   Clear
4:16 AM 32.4 °F 31.3 °F 96% 30.01 in 10.0 mi North - - N/A   Clear
4:35 AM 32.4 °F 31.5 °F 96% 30.01 in 10.0 mi North - - N/A   Clear
4:55 AM 32.5 °F 31.5 °F 96% 30.02 in 10.0 mi North - - N/A   Clear
5:15 AM 32.0 °F 30.6 °F 94% 30.02 in 10.0 mi North - - N/A   Clear
5:35 AM 31.6 °F 30.0 °F 94% 30.02 in 10.0 mi North - - N/A   Clear
5:55 AM 31.1 °F 29.5 °F 94% 30.02 in 10.0 mi North - - N/A   Clear
5:56 AM 31.3 °F 29.7 °F 94% 30.02 in 10.0 mi North - - N/A   Clear
6:15 AM 31.5 °F 30.0 °F 94% 30.02 in 10.0 mi North - - N/A   Clear
6:35 AM 31.1 °F 29.5 °F 94% 30.02 in 10.0 mi North - - N/A   Clear
6:55 AM 31.6 °F 30.2 °F 94% 30.02 in 10.0 mi North - - N/A   Clear
6:56 AM 31.6 °F 30.2 °F 94% 30.02 in 10.0 mi North - - N/A   Clear
7:15 AM 31.8 °F 29.7 °F 92% 30.02 in 10.0 mi North - - N/A   Clear
7:35 AM 32.0 °F 30.6 °F 94% 30.02 in 10.0 mi North - - N/A   Clear
7:36 AM 32.0 °F 30.6 °F 94% 30.02 in 10.0 mi North - - N/A   Clear
7:55 AM 31.8 °F 30.0 °F 93% 30.03 in 10.0 mi North - - N/A   Clear
8:15 AM 32.5 °F 31.5 °F 96% 30.03 in 10.0 mi North - - N/A   Clear
8:16 AM 32.7 °F 31.6 °F 96% 30.03 in 10.0 mi North - - N/A   Clear
8:35 AM 34.7 °F 32.9 °F 93% 30.03 in 10.0 mi North - - N/A   Clear
8:55 AM 37.4 °F 35.2 °F 92% 30.03 in 10.0 mi North - - N/A   Clear
8:56 AM 37.4 °F 35.2 °F 92% 30.03 in 10.0 mi North - - N/A   Clear
9:15 AM 39.4 °F 36.1 °F 88% 30.03 in 10.0 mi North - - N/A   Clear
9:35 AM 41.0 °F 36.5 °F 84% 30.03 in 10.0 mi North - - N/A   Clear
9:55 AM 42.6 °F 36.7 °F 79% 30.02 in 10.0 mi North - - N/A   Clear
10:15 AM 44.6 °F 37.2 °F 75% 30.03 in 10.0 mi North - - N/A   Clear
10:35 AM 45.0 °F 36.5 °F 72% 30.03 in 10.0 mi North - - N/A   Clear
10:55 AM 46.8 °F 36.5 °F 67% 30.03 in 10.0 mi North - - N/A   Clear
11:15 AM 47.5 °F 36.3 °F 65% 30.03 in 10.0 mi North - - N/A   Clear
11:35 AM 48.2 °F 35.6 °F 62% 30.02 in 10.0 mi North - - N/A   Clear
11:55 AM 49.6 °F 36.5 °F 61% 30.01 in 10.0 mi North - - N/A   Clear
12:15 PM 50.4 °F 36.3 °F 59% 30.01 in 10.0 mi North - - N/A   Clear
12:35 PM 50.5 °F 36.0 °F 57% 30.00 in 10.0 mi North - - N/A   Clear
12:55 PM 51.4 °F 36.3 °F 56% 29.99 in 10.0 mi North - - N/A   Clear
1:35 PM 53.2 °F 36.7 °F 53% 29.98 in 10.0 mi North - - N/A   Clear
1:55 PM 54.1 °F 36.3 °F 51% 29.97 in 10.0 mi North - - N/A   Clear
2:15 PM 54.0 °F 36.0 °F 51% 29.96 in 10.0 mi North - - N/A   Clear
2:35 PM 54.7 °F 36.0 °F 49% 29.94 in 10.0 mi North - - N/A   Clear
2:36 PM 54.9 °F 35.8 °F 49% 29.94 in 10.0 mi North - - N/A   Clear
2:55 PM 55.2 °F 36.5 °F 49% 29.94 in 10.0 mi North - - N/A   Clear
3:15 PM 55.2 °F 35.6 °F 48% 29.92 in 10.0 mi North - - N/A   Clear
3:35 PM 55.4 °F 35.2 °F 47% 29.91 in 10.0 mi North - - N/A   Clear
3:55 PM 55.6 °F 34.9 °F 46% 29.91 in 10.0 mi North - - N/A   Clear
4:15 PM 55.9 °F 36.0 °F 47% 29.91 in 10.0 mi North - - N/A   Clear
4:36 PM 55.8 °F 36.3 °F 48% 29.91 in 10.0 mi North - - N/A   Clear
4:55 PM 55.4 °F 36.0 °F 48% 29.90 in 10.0 mi North - - N/A   Clear
5:15 PM 54.9 °F 35.6 °F 48% 29.90 in 10.0 mi North - - N/A   Clear
5:35 PM 54.1 °F 36.0 °F 50% 29.89 in 10.0 mi North - - N/A   Clear
5:55 PM 53.4 °F 36.3 °F 52% 29.89 in 10.0 mi North - - N/A   Clear
5:56 PM 53.2 °F 36.3 °F 53% 29.89 in 10.0 mi North - - N/A   Clear
6:15 PM 52.0 °F 36.5 °F 56% 29.89 in 10.0 mi North - - N/A   Clear
6:16 PM 51.8 °F 36.5 °F 56% 29.89 in 10.0 mi North - - N/A   Clear
6:35 PM 50.7 °F 36.5 °F 58% 29.89 in 10.0 mi North - - N/A   Clear
6:36 PM 50.5 °F 36.5 °F 59% 29.89 in 10.0 mi North - - N/A   Clear
6:55 PM 48.2 °F 36.5 °F 64% 29.89 in 10.0 mi North - - N/A   Clear
7:15 PM 47.8 °F 36.5 °F 65% 29.89 in 10.0 mi North - - N/A   Clear
7:35 PM 47.8 °F 36.7 °F 65% 29.88 in 10.0 mi North - - N/A   Clear
7:36 PM 47.8 °F 36.7 °F 65% 29.88 in 10.0 mi North - - N/A   Clear
7:55 PM 47.8 °F 36.5 °F 65% 29.87 in 10.0 mi North - - N/A   Clear
8:15 PM 47.7 °F 36.9 °F 66% 29.87 in 10.0 mi North - - N/A   Clear
8:35 PM 46.6 °F 36.5 °F 68% 29.87 in 10.0 mi North - - N/A   Clear
8:36 PM 46.6 °F 36.5 °F 68% 29.87 in 10.0 mi North - - N/A   Clear
8:55 PM 46.9 °F 36.5 °F 67% 29.87 in 10.0 mi North - - N/A   Clear
9:15 PM 46.8 °F 36.5 °F 67% 29.87 in 10.0 mi North - - N/A   Clear
9:16 PM 46.8 °F 36.5 °F 67% 29.87 in 10.0 mi North - - N/A   Clear
9:35 PM 46.6 °F 36.5 °F 68% 29.87 in 10.0 mi North - - N/A   Clear
9:55 PM 46.9 °F 36.5 °F 67% 29.87 in 10.0 mi North - - N/A   Clear
9:56 PM 46.9 °F 36.5 °F 67% 29.87 in 10.0 mi North - - N/A   Clear
10:15 PM 46.9 °F 36.5 °F 67% 29.88 in 10.0 mi North - - N/A   Clear
10:35 PM 47.1 °F 36.5 °F 67% 29.88 in 10.0 mi North - - N/A   Clear
10:55 PM 47.3 °F 36.5 °F 66% 29.87 in 10.0 mi North - - N/A   Clear
11:15 PM 47.3 °F 36.3 °F 66% 29.87 in 10.0 mi North - - N/A   Clear
11:16 PM 47.3 °F 36.1 °F 65% 29.87 in 10.0 mi North - - N/A   Clear
11:35 PM 47.1 °F 36.3 °F 66% 29.87 in 10.0 mi North - - N/A   Clear
11:36 PM 47.3 °F 36.5 °F 66% 29.87 in 10.0 mi North - - N/A   Clear
11:55 PM 47.3 °F 36.1 °F 65% 29.86 in 10.0 mi North - - N/A   Clear